Location: Dumpton Point
(51.3500°N, 1.4433°E)
Time: 16:47:06
(UTC+00:00)

A-11 Canister half - All Passes

Search period start: 11 April 2021 00:00
Search period end: 21 April 2021 00:00
Orbit: 1525 x 1683 km, 47.3° (Epoch: 11 April)

Date Brightness Start Highest point End Pass type
(mag) Time Alt. Az. Time Alt. Az. Time Alt. Az.
11 Apr - 01:14:26 10° W 01:20:54 20° SW 01:27:16 10° S visible
11 Apr - 16:34:42 10° SSW 16:43:07 31° SE 16:51:34 10° E daylight
11 Apr - 18:37:02 10° WSW 18:46:57 61° SSE 18:56:49 10° E daylight
11 Apr - 20:41:33 10° W 20:51:39 71° S 21:01:35 10° ESE visible
11 Apr - 22:46:32 10° W 22:56:06 50° SSW 23:05:26 10° SE visible
12 Apr - 00:52:35 10° W 00:59:20 21° SW 01:05:59 10° S visible
12 Apr - 16:13:14 10° SSW 16:21:31 30° SE 16:29:50 10° E daylight
12 Apr - 18:15:25 10° SW 18:25:17 60° SSE 18:35:09 10° E daylight
12 Apr - 20:19:52 10° W 20:29:59 71° S 20:39:55 10° ESE visible
12 Apr - 22:24:49 10° W 22:34:27 51° SSW 22:43:52 10° SE visible
13 Apr - 00:30:46 10° W 00:37:47 22° SW 00:44:40 10° S visible
13 Apr - 15:51:47 10° S 15:59:55 29° SE 16:08:05 10° E daylight
13 Apr - 17:53:47 10° SW 18:03:38 58° SSE 18:13:28 10° E daylight
13 Apr - 19:58:11 10° W 20:08:18 71° S 20:18:17 10° ESE visible
13 Apr - 22:03:07 10° W 22:12:49 53° SSW 22:22:18 10° SE visible
14 Apr - 00:08:56 10° W 00:16:13 23° SW 00:23:20 10° S visible
14 Apr - 15:30:21 10° S 15:38:18 28° SE 15:46:20 10° E daylight
14 Apr - 17:32:10 10° SW 17:41:58 57° SSE 17:51:47 10° E daylight
14 Apr - 19:36:30 10° W 19:46:37 72° S 19:56:37 10° E visible
14 Apr - 21:41:26 10° W 21:51:10 54° SSW 22:00:43 10° SE visible
14 Apr - 23:47:08 10° W 23:54:37 24° SW 00:01:58 10° S visible
15 Apr - 15:08:56 10° S 15:16:43 26° SE 15:24:34 10° E daylight
15 Apr - 17:10:33 10° SW 17:20:19 56° SSE 17:30:06 10° E daylight
15 Apr - 19:14:49 10° W 19:24:56 72° S 19:34:56 10° E visible
15 Apr - 21:19:44 10° W 21:29:31 55° SSW 21:39:07 10° SE visible
15 Apr - 23:25:21 10° W 23:33:03 26° SW 23:40:36 10° S visible
16 Apr - 14:47:32 10° S 14:55:08 25° SE 15:02:48 10° E daylight
16 Apr - 16:48:57 10° SW 16:58:39 55° SSE 17:08:25 10° E daylight
16 Apr - 18:53:09 10° W 19:03:15 72° S 19:13:18 10° E daylight
16 Apr - 20:58:02 10° W 21:07:52 57° SSW 21:17:31 10° SE visible
16 Apr - 23:03:34 10° W 23:11:28 27° SW 23:19:12 10° S visible
17 Apr - 14:26:09 10° S 14:33:33 24° SE 14:41:00 10° E daylight
17 Apr - 16:27:21 10° SW 16:37:00 53° SSE 16:46:44 10° E daylight
17 Apr - 18:31:29 10° W 18:41:34 72° S 18:51:37 10° E daylight
17 Apr - 20:36:21 10° W 20:46:13 58° SSW 20:55:55 10° SE visible
17 Apr - 22:41:49 10° W 22:49:52 28° SW 22:57:47 10° S visible
18 Apr - 14:04:47 10° S 14:11:57 23° SE 14:19:13 10° E daylight
18 Apr - 16:05:45 10° SW 16:15:21 52° SSE 16:25:03 10° E daylight
18 Apr - 18:09:48 10° WSW 18:19:53 71° S 18:29:56 10° E daylight
18 Apr - 20:14:39 10° W 20:24:33 59° SSW 20:34:18 10° SE visible
18 Apr - 22:20:03 10° W 22:28:16 29° SW 22:36:22 10° SSE visible
19 Apr - 13:43:27 10° S 13:50:23 22° SE 13:57:23 10° E daylight
19 Apr - 15:44:10 10° SW 15:53:42 51° SSE 16:03:21 10° E daylight
19 Apr - 17:48:08 10° WSW 17:58:12 71° S 18:08:17 10° E daylight
19 Apr - 19:52:58 10° W 20:02:54 60° SSW 20:12:41 10° SE visible
19 Apr - 21:58:18 10° W 22:06:40 31° SW 22:14:55 10° SSE visible
20 Apr - 13:22:08 10° S 13:28:49 21° SE 13:35:33 10° E daylight
20 Apr - 15:22:35 10° SW 15:32:03 49° SSE 15:41:39 10° E daylight
20 Apr - 17:26:28 10° WSW 17:36:31 71° S 17:46:35 10° E daylight
20 Apr - 19:31:17 10° W 19:41:14 61° SSW 19:51:04 10° ESE visible
20 Apr - 21:36:33 10° W 21:45:04 32° SW 21:53:28 10° SSE visible
